This is the latest recevied weather packets stored in our database for station/object N0FDH. If no packets are shown the sender has not sent any weather packets the latest 10 day(s).
| Time | Temp. | Humidity | Pressure | Rain* | Wind** | Luminosity | Snow |
|---|---|---|---|---|---|---|---|
| 1777908038 | 13.89° C | 47% | 996.3 hPa | 0 mm | - | 288 W/m² | - |
| 1777907733 | 13.89° C | 48% | 996 hPa | 0 mm | - | 322 W/m² | - |
| 1777907427 | 13.89° C | 47% | 996.1 hPa | 0 mm | - | 265 W/m² | - |
| 1777907125 | 13.33° C | 49% | 995.9 hPa | 0 mm | - | 143 W/m² | - |
| 1777906823 | 13.89° C | 49% | 996.1 hPa | 0 mm | - | 205 W/m² | - |
| 1777906520 | 13.89° C | 50% | 996 hPa | 0 mm | - | 181 W/m² | - |
| 1777906215 | 13.89° C | 47% | 995.7 hPa | 0 mm | - | 229 W/m² | - |
| 1777905912 | 14.44° C | 44% | 995.9 hPa | 0 mm | - | 280 W/m² | - |
| 1777905609 | 14.44° C | 46% | 995.7 hPa | 0 mm | - | 344 W/m² | - |
| 1777905306 | 13.89° C | 48% | 995.4 hPa | 0 mm | - | 270 W/m² | - |
| 1777905003 | 13.89° C | 50% | 995.8 hPa | 0 mm | - | 280 W/m² | - |
| 1777904700 | 13.89° C | 53% | 995.7 hPa | 0 mm | - | 149 W/m² | - |
| 1777904397 | 13.89° C | 51% | 995.7 hPa | 0 mm | - | 132 W/m² | - |
| 1777904094 | 13.89° C | 51% | 995.7 hPa | 0 mm | - | 151 W/m² | - |
| 1777903790 | 13.89° C | 52% | 995.7 hPa | 0 mm | - | 161 W/m² | - |
| 1777903487 | 13.89° C | 48% | 995.6 hPa | 0 mm | - | 233 W/m² | - |
| 1777903183 | 13.89° C | 53% | 995.6 hPa | 0 mm | - | 197 W/m² | - |
| 1777902880 | 13.89° C | 54% | 995.6 hPa | 0 mm | - | 83 W/m² | - |
| 1777902577 | 13.89° C | 50% | 995.4 hPa | 0 mm | - | 115 W/m² | - |
| 1777902274 | 14.44° C | 53% | 994.9 hPa | 0 mm | - | 78 W/m² | - |
| 1777901972 | 14.44° C | 53% | 995 hPa | 0 mm | - | 99 W/m² | - |
| 1777901669 | 14.44° C | 54% | 995.2 hPa | 0 mm | - | 129 W/m² | - |
| 1777901366 | 14.44° C | 54% | 995 hPa | 0 mm | - | 116 W/m² | - |
| 1777901064 | 14.44° C | 54% | 995 hPa | 0 mm | - | 114 W/m² | - |
| 1777900761 | 14.44° C | 51% | 995 hPa | 0 mm | - | 98 W/m² | - |
* Rain latest hour (hover to see other rain measurements)
** Current wind speed in m/s (hover to see current wind gust speed)